TimeMDT,TemperatureF,Dew PointF,Humidity,Sea Level PressureIn,VisibilityMPH,Wind Direction,Wind SpeedMPH,Gust SpeedMPH,PrecipitationIn,Events,Conditions,WindDirDegrees,DateUTC
12:53 AM,64.9,46.0,50,29.98,10.0,Calm,Calm,-,N/A,,Clear,0,2013-07-03 06:53:00
1:53 AM,61.0,48.0,62,30.00,10.0,East,5.8,-,N/A,,Clear,90,2013-07-03 07:53:00
2:53 AM,57.9,46.9,67,30.00,10.0,NE,6.9,-,N/A,,Clear,50,2013-07-03 08:53:00
3:53 AM,57.0,48.0,72,29.99,10.0,NE,6.9,-,N/A,,Clear,50,2013-07-03 09:53:00
4:53 AM,54.0,46.0,75,29.99,10.0,ENE,4.6,-,N/A,,Clear,70,2013-07-03 10:53:00
5:53 AM,53.1,46.0,77,29.99,10.0,Calm,Calm,-,N/A,,Clear,0,2013-07-03 11:53:00
6:53 AM,55.0,46.0,72,29.99,10.0,North,6.9,-,N/A,,Clear,360,2013-07-03 12:53:00
7:53 AM,62.1,46.9,58,30.00,10.0,NNW,3.5,-,N/A,,Clear,340,2013-07-03 13:53:00
8:53 AM,66.9,48.9,52,29.99,10.0,Calm,Calm,-,N/A,,Clear,0,2013-07-03 14:53:00
9:53 AM,71.1,48.0,44,29.97,10.0,Variable,5.8,-,N/A,,Clear,0,2013-07-03 15:53:00
10:53 AM,73.0,48.0,41,29.95,10.0,Variable,6.9,-,N/A,,Clear,0,2013-07-03 16:53:00
11:53 AM,75.9,46.9,36,29.93,10.0,Variable,6.9,-,N/A,,Clear,0,2013-07-03 17:53:00
12:53 PM,80.1,46.0,30,29.88,10.0,West,6.9,16.1,N/A,,Clear,260,2013-07-03 18:53:00
1:53 PM,84.9,44.1,24,29.85,10.0,West,13.8,17.3,N/A,,Clear,260,2013-07-03 19:53:00
2:53 PM,84.9,45.0,25,29.82,10.0,WSW,6.9,-,N/A,,Clear,240,2013-07-03 20:53:00
3:53 PM,89.1,44.1,21,29.77,10.0,West,15.0,23.0,N/A,,Clear,260,2013-07-03 21:53:00
4:53 PM,88.0,42.1,20,29.75,10.0,WSW,13.8,21.9,N/A,,Clear,240,2013-07-03 22:53:00
5:53 PM,88.0,37.9,17,29.72,10.0,North,11.5,18.4,N/A,,Clear,350,2013-07-03 23:53:00
6:51 PM,77.0,42.8,29,30.04,10.0,East,15.0,25.3,N/A,,Clear,100,2013-07-04 00:51:00
6:53 PM,75.9,43.0,31,29.80,10.0,East,13.8,25.3,N/A,,Clear,90,2013-07-04 00:53:00
7:00 PM,73.4,44.6,36,30.04,10.0,East,12.7,23.0,N/A,,Clear,90,2013-07-04 01:00:00
7:53 PM,72.0,43.0,35,29.84,10.0,ESE,16.1,26.5,N/A,,Clear,120,2013-07-04 01:53:00
8:53 PM,71.1,42.1,35,29.87,10.0,ESE,5.8,-,N/A,,Clear,110,2013-07-04 02:53:00
9:53 PM,68.0,43.0,40,29.88,10.0,East,4.6,-,N/A,,Clear,100,2013-07-04 03:53:00
10:53 PM,64.9,43.0,45,29.90,10.0,ENE,6.9,-,N/A,,Clear,60,2013-07-04 04:53:00
11:53 PM,63.0,44.1,50,29.88,10.0,SE,4.6,-,N/A,,Clear,130,2013-07-04 05:53:00